This is the latest recevied weather packets stored in our database for station/object W7TRD. If no packets are shown the sender has not sent any weather packets the latest 10 day(s).
| Time | Temp. | Humidity | Pressure | Rain* | Wind** | Luminosity | Snow |
|---|---|---|---|---|---|---|---|
| 1788194971 | 17.78° C | 71% | 1012 hPa | 0 mm | - | 402 W/m² | - |
| 1788194666 | 17.78° C | 73% | 1011.9 hPa | 0 mm | - | 390 W/m² | - |
| 1788194361 | 17.22° C | 72% | 1012.4 hPa | 0 mm | - | 382 W/m² | - |
| 1788194057 | 17.22° C | 73% | 1012.4 hPa | 0 mm | - | 371 W/m² | - |
| 1788193755 | 17.22° C | 74% | 1012.3 hPa | 0 mm | - | 359 W/m² | - |
| 1788193451 | 17.22° C | 73% | 1012.5 hPa | 0 mm | - | 348 W/m² | - |
| 1788193149 | 17.22° C | 75% | 1012.5 hPa | 0 mm | - | 334 W/m² | - |
| 1788192846 | 16.67° C | 78% | 1012.6 hPa | 0 mm | - | 322 W/m² | - |
| 1788192541 | 16.67° C | 76% | 1012.6 hPa | 0 mm | - | 303 W/m² | - |
| 1788192236 | 16.67° C | 76% | 1012.6 hPa | 0 mm | - | 78 W/m² | - |
| 1788191931 | 16.11° C | 79% | 1012.5 hPa | 0 mm | - | 282 W/m² | - |
| 1788191630 | 15.56° C | 79% | 1012.5 hPa | 0 mm | - | 270 W/m² | - |
| 1788191326 | 15.56° C | 81% | 1012.5 hPa | 0 mm | - | 260 W/m² | - |
| 1788191023 | 15.56° C | 81% | 1012.6 hPa | 0 mm | - | 245 W/m² | - |
| 1788190721 | 15° C | 82% | 1012.7 hPa | 0 mm | - | 233 W/m² | - |
| 1788190417 | 15° C | 83% | 1012.7 hPa | 0 mm | - | 220 W/m² | - |
| 1788190113 | 14.44° C | 84% | 1012.8 hPa | 0 mm | - | 205 W/m² | - |
| 1788189808 | 14.44° C | 84% | 1012.9 hPa | 0 mm | - | 193 W/m² | - |
| 1788189511 | 13.89° C | 86% | 1012.8 hPa | 0 mm | - | 182 W/m² | - |
| 1788189202 | 13.89° C | 86% | 1012.7 hPa | 0 mm | - | 166 W/m² | - |
| 1788188898 | 13.89° C | 87% | 1012.8 hPa | 0 mm | - | 132 W/m² | - |
| 1788188593 | 13.33° C | 88% | 1012.8 hPa | 0 mm | - | 104 W/m² | - |
| 1788188292 | 12.78° C | 89% | 1012.9 hPa | 0 mm | - | 88 W/m² | - |
| 1788187989 | 12.22° C | 91% | 1013 hPa | 0 mm | - | 76 W/m² | - |
| 1788187684 | 12.22° C | 91% | 1012.9 hPa | 0 mm | - | 44 W/m² | - |
* Rain latest hour (hover to see other rain measurements)
** Current wind speed in m/s (hover to see current wind gust speed)